Location: Wanzleben
(52.0609°N, 11.4408°E)
Time: 03:54:12
(UTC+00:00)

Lacrosse 4 Rocket - Pass Details

Date: 18 September 2020
Orbit: 543 x 615 km, 68.0° (Epoch: 22 October)

Event Time Altitude Azimuth Distance (km) Brightness Sun altitude
Rises 19:19:16 0° 327° (NNW) 2,718 5.9 -18.2°
Reaches altitude 10° 19:22:03 10° 347° (NNW) 1,822 4.5 -18.6°
Maximum altitude 19:24:54 18° 31° (NNE) 1,379 3.3 -19.0°
Enters shadow 19:25:51 17° 49° (NE) 1,435 3.2 -19.1°
